Detroit Metro, MI

1:31 PM EDT on July 27, 2017 (GMT -0400)
Detroit Metro Wayne County

Weather History for KDTW - January, 2013

Change the Weather History Date:

Thursday, January 24, 2013

  Actual Average Record
Temperature  
Mean Temperature 17 °F 25 °F  
Max Temperature 22 °F 32 °F 61 °F (1909)
Min Temperature 11 °F 19 °F -13 °F (1963)
Degree Days  
Heating Degree Days 48 40  
Month to date heating degree days 882 950  
Since 1 July heating degree days 3001 3247  
Cooling Degree Days 0 0  
Month to date cooling degree days 0 0  
Year to date cooling degree days 0 0  
Moisture  
Dew Point 4 °F    
Average Humidity 66    
Maximum Humidity 88    
Minimum Humidity 43    
Precipitation  
Precipitation T in 0.06 in 0.49 in (1918)
Month to date precipitation 1.72 1.55  
Year to date precipitation 1.72 1.55  
Snow  
Snow 0.10 in 0.40 in 3.60 in (1918)
Month to date snowfall 2.8 9.8  
Since 1 July snowfall 13.8 21.0  
Snow Depth 1.00 in    
Sea Level Pressure  
Sea Level Pressure 30.40 in    
Wind  
Wind Speed 7 mph (NW)    
Max Wind Speed 15 mph    
Max Gust Speed 20 mph    
Visibility 8 miles    
Events Snow    
T = Trace of Precipitation, MM = Missing Value Source: NWS Daily Summary

Daily Weather History Graph

Daily Weather History Graph

Search for Another Location

Airport or City:

Trip Planner

Search our weather history database for the weather conditions in past years. The results will help you decide how hot, cold, wet, or windy it might be!

Date:

Astronomy

Jan. 24, 2013 Rise Set
Actual Time 7:53 AM EST 5:37 PM EST
Civil Twilight 7:23 AM EST 6:08 PM EST
Nautical Twilight 6:49 AM EST 6:42 PM EST
Astronomical Twilight 6:16 AM EST 7:15 PM EST
Moon 3:38 PM EST (1/24) 5:51 AM EST (1/24)
Length of Visible Light 10h 44m
Length of Day
9h 44m
Waxing Gibbous, 94% of the Moon is Illuminated
Jan 24
Waxing Gibbous
Jan 26
Full
Feb 3
Last Quarter
Feb 10
New
Feb 17
First Quarter

Hourly Weather History & Observations

Time (EST) Temp. Windchill Dew Point Humidity Pressure Visibility Wind Dir Wind Speed Gust Speed Precip Events Conditions
12:06 AM 12.2 °F 4.3 °F 8.6 °F 85% 30.10 in 7.0 mi WNW 4.6 mph - 0.00 in Snow Light Snow
12:15 AM 14.0 °F 5.1 °F 8.6 °F 79% 30.10 in 5.0 mi NW 5.8 mph - 0.00 in Snow Light Snow
12:41 AM 14.0 °F 5.1 °F 8.6 °F 79% 30.11 in 8.0 mi NW 5.8 mph - 0.00 in Snow Light Snow
12:53 AM 12.9 °F 3.8 °F 9.0 °F 84% 30.15 in 6.0 mi WNW 5.8 mph - 0.00 in Snow Light Snow
1:15 AM 14.0 °F 2.9 °F 8.6 °F 79% 30.12 in 4.0 mi NW 8.1 mph - 0.00 in Snow Light Snow
1:48 AM 15.8 °F 5.1 °F 8.6 °F 73% 30.14 in 3.0 mi NW 8.1 mph - 0.00 in Snow Light Snow
1:53 AM 15.1 °F 4.2 °F 9.0 °F 77% 30.18 in 3.0 mi NW 8.1 mph - 0.00 in Snow Light Snow
2:02 AM 15.8 °F 4.2 °F 8.6 °F 73% 30.15 in 2.5 mi NW 9.2 mph - 0.00 in Snow Light Snow
2:08 AM 15.8 °F 4.2 °F 8.6 °F 73% 30.16 in 2.5 mi NW 9.2 mph - 0.00 in Snow Light Snow
2:18 AM 15.8 °F 2.7 °F 8.6 °F 73% 30.17 in 4.0 mi NW 11.5 mph - 0.00 in Snow Light Snow
2:34 AM 14.0 °F 2.0 °F 8.6 °F 79% 30.18 in 7.0 mi NNW 9.2 mph - 0.00 in Snow Light Snow
2:53 AM 14.0 °F 1.2 °F 7.0 °F 74% 30.23 in 7.0 mi NNW 10.4 mph - 0.00 in Snow Light Snow
3:53 AM 12.9 °F -0.9 °F 6.1 °F 74% 30.28 in 9.0 mi NW 11.5 mph - 0.00 in   Overcast
4:48 AM 12.2 °F -3.1 °F 6.8 °F 79% 30.28 in 10.0 mi NW 13.8 mph - N/A   Mostly Cloudy
4:53 AM 12.0 °F -1.3 °F 6.1 °F 77% 30.32 in 10.0 mi NW 10.4 mph - N/A   Mostly Cloudy
5:53 AM 10.9 °F -3.4 °F 5.0 °F 77% 30.37 in 10.0 mi WNW 11.5 mph - N/A   Scattered Clouds
6:30 AM 10.4 °F -3.3 °F 5.0 °F 79% 30.36 in 10.0 mi NW 10.4 mph - N/A   Mostly Cloudy
6:48 AM 10.4 °F -4.1 °F 3.2 °F 73% 30.38 in 10.0 mi NW 11.5 mph - N/A   Mostly Cloudy
6:53 AM 10.9 °F -3.4 °F 3.9 °F 73% 30.43 in 10.0 mi NW 11.5 mph - N/A   Mostly Cloudy
7:53 AM 10.9 °F -2.6 °F 3.9 °F 73% 30.47 in 10.0 mi NW 10.4 mph - N/A   Overcast
8:53 AM 12.0 °F 1.5 °F 3.9 °F 70% 30.51 in 10.0 mi NNW 6.9 mph - N/A   Scattered Clouds
9:53 AM 14.0 °F 0.5 °F 5.0 °F 67% 30.56 in 10.0 mi NNW 11.5 mph - N/A   Partly Cloudy
10:53 AM 17.1 °F 3.6 °F 5.0 °F 59% 30.59 in 10.0 mi NNW 12.7 mph - N/A   Scattered Clouds
11:53 AM 19.0 °F 8.2 °F 5.0 °F 54% 30.61 in 10.0 mi North 9.2 mph - N/A   Scattered Clouds
12:53 PM 19.0 °F 11.1 °F 3.0 °F 50% 30.59 in 10.0 mi North 5.8 mph - N/A   Scattered Clouds
1:53 PM 19.9 °F 11.1 °F 1.0 °F 44% 30.58 in 10.0 mi NW 6.9 mph - N/A   Mostly Cloudy
2:53 PM 19.9 °F 13.4 °F 1.0 °F 44% 30.58 in 10.0 mi SW 4.6 mph - N/A   Scattered Clouds
3:53 PM 19.9 °F 13.4 °F -0.0 °F 42% 30.58 in 10.0 mi West 4.6 mph - N/A   Mostly Cloudy
4:53 PM 18.0 °F 11.1 °F -2.9 °F 40% 30.59 in 10.0 mi West 4.6 mph - N/A   Mostly Cloudy
5:53 PM 17.1 °F 11.7 °F -2.9 °F 41% 30.60 in 10.0 mi NW 3.5 mph - N/A   Mostly Cloudy
6:53 PM 15.1 °F 9.4 °F -2.9 °F 45% 30.60 in 10.0 mi NNW 3.5 mph - N/A   Scattered Clouds
7:53 PM 14.0 °F 8.2 °F -2.0 °F 49% 30.59 in 10.0 mi NW 3.5 mph - N/A   Partly Cloudy
8:53 PM 15.1 °F 9.4 °F -0.9 °F 49% 30.57 in 10.0 mi NNE 3.5 mph - N/A   Mostly Cloudy
9:53 PM 16.0 °F 8.8 °F 3.9 °F 59% 30.56 in 10.0 mi East 4.6 mph - N/A   Overcast
10:53 PM 15.1 °F 9.4 °F 3.9 °F 61% 30.55 in 10.0 mi East 3.5 mph - N/A   Overcast
11:53 PM 15.1 °F 9.4 °F 3.9 °F 61% 30.53 in 10.0 mi East 3.5 mph - N/A   Overcast